Погода в Капошваре

Венгрия     46°21′49″N   17°46′57″E
темп.,
°C
ветер,
м/с
пор.,
м/с
влажн.,
%
обл.,
%
осадки,
мм/ч
давл.,
гПа
погр.,
м
15 мая, сб
сб1523:00+10юв229068 0.0 101028
02:00+10ю2295100 0.0 101125
05:00+9ююз1194100 0.0 101010
08:00+12ю1185100 0.0 1012193
11:00+17ююз1166100 0.0 1011679
14:00+19ююз235599 0.3 10101433
17:00+16юз3572100 0.3 1009249
20:00+14ююз2283100 0.4 100837
16 мая, вс
вс1623:00+12ю348790 0.0 100872
02:00+10ююз31288100 0.0 1008310
05:00+10юз4138443 0.0 1008382
08:00+13зюз4107789 0.0 1009539
11:00+13ссз447960 0.1 1010649
14:00+14ссз237513 0.1 1010474
17:00+17з236465 0.0 1009596
20:00+14юз258088 0.0 1009110
17 мая, пн
пн1723:00+11ююз359394 0.0 100992
02:00+12ююз388992 0.1 1009285
05:00+12ююз1398100 1.5 1008117
08:00+12сз2499100 9.9 1009305
11:00+12ссв41092100 4.5 1010633
14:00+12всв128791 5.3 1010284
17:00+14зюз3488100 0.1 1010387
20:00+12з3597100 0.8 1011199
18 мая, вт
вт1823:00+11ссз3996100 0.1 1012290
02:00+11з2494100 0.1 1012138
05:00+10ссз2793100 0.0 1012283
08:00+10св2793100 0.1 1014374
11:00+11сз1289100 0.3 1014128
14:00+12ссз1287100 1.5 1014266
17:00+11сз2594100 2.0 1014269
20:00+10сз3991100 3.4 1015399
19 мая, ср
ср1923:00+9с6168393 0.0 1016792
02:00+9ссз6147999 0.0 1018697
05:00+9ссз71578100 0.0 1018835
08:00+11ссз6127497 0.0 10191076
11:00+14ссз796284 0.1 10191554
14:00+16ссз5750100 0.2 10172233
17:00+17сз355760 0.0 10161029
20:00+12зсз35736 0.1 101766